User: anonymous   Login
Location: Squirrel Cove
(50.1074°N, 124.9139°W)
Time: 10:39:47
(UTC-07:00)
Language:

First-Move - Orbit

View from above orbital plane
View from above orbital plane
View from above satellite
View from above satellite

Ground track
Ground track

The orbit data is extracted from the following two-line orbital elements,

1 39439U 13066Z   22135.90910302  .00004780  00000-0  56054-3 0  9993
2 39439  97.6355 111.1413 0064177 145.5701 214.9698 14.83930271457222
Epoch (UTC): 15 May 2022 21:49:06
Eccentricity: 0.0064177
inclination: 97.6355°
perigee height: 572 km
apogee height: 662 km
right ascension of ascending node: 111.1413°
argument of perigee: 145.5701°
revolutions per day: 14.83930271
mean anomaly at epoch: 214.9698°
orbit number at epoch: 45722

The dashed part of the orbit path shows where the satellite is in the earth's shadow,  

DLR